Location: NCO
(38.4404°N, 77.1340°W)
Time: 12:34:03
(UTC-04:00)

ISS - Visible Passes

Search period start: 20 July 2017 00:00
Search period end: 30 July 2017 00:00
Orbit: 400 x 408 km, 51.6° (Epoch: 20 July)

Date Brightness Start Highest point End Pass type
(mag) Time Alt. Az. Time Alt. Az. Time Alt. Az.
20 Jul -0.3 01:30:41 11° N 01:30:41 11° N 01:31:21 10° N visible
20 Jul -0.8 04:42:56 10° NNW 04:45:16 18° NNE 04:47:36 10° ENE visible
21 Jul -0.5 03:51:04 10° NNW 03:52:41 13° NNE 03:54:19 10° NE visible
21 Jul -3.1 05:26:30 10° NW 05:29:44 58° NE 05:32:57 10° ESE visible
22 Jul -0.2 02:59:40 10° N 03:00:03 10° NNE 03:00:24 10° NNE visible
22 Jul -1.9 04:34:20 10° NW 04:37:19 32° NNE 04:40:17 10° E visible
22 Jul -2.5 21:13:43 10° S 21:16:08 19° SE 21:18:32 10° E visible
22 Jul -2.4 22:49:20 10° WSW 22:52:24 39° NNW 22:55:29 10° NE visible
23 Jul -0.2 00:28:37 10° NNW 00:29:35 11° NNW 00:30:34 10° N visible
23 Jul -1.0 03:42:17 10° NNW 03:44:49 20° NNE 03:47:21 10° ENE visible
23 Jul -3.7 05:18:17 10° WNW 05:21:29 52° SW 05:24:39 10° SE visible
23 Jul -3.7 21:56:46 10° SW 22:00:00 76° NW 22:03:16 10° NE visible
23 Jul -0.6 23:35:03 10° NW 23:36:56 14° NNW 23:38:49 10° NNE visible
24 Jul -0.5 02:50:20 10° NNW 02:52:13 14° NNE 02:54:07 10° NE visible
24 Jul -3.7 04:25:54 10° NW 04:29:10 75° NE 04:32:25 10° SE visible
24 Jul -3.7 21:04:32 10° SSW 21:07:41 51° SE 21:10:51 10° ENE visible
24 Jul -1.1 22:41:48 10° WNW 22:44:21 20° NNW 22:46:52 10° NNE visible
25 Jul -0.2 01:58:36 10° N 01:59:33 11° NNE 02:00:31 10° NNE visible
25 Jul -2.4 03:33:40 10° NW 03:36:45 38° NNE 03:39:50 10° ESE visible
25 Jul -2.5 05:10:35 10° W 05:13:02 20° SW 05:15:29 10° S visible
25 Jul -1.9 21:48:50 10° W 21:51:48 32° NNW 21:54:47 10° NE visible
25 Jul -0.2 23:28:41 10° NNW 23:29:04 10° NNW 23:29:27 10° N visible
26 Jul -3.2 20:56:08 10° WSW 20:59:20 59° NW 21:02:34 10° NE visible
26 Jul -0.5 22:34:44 10° NW 22:36:22 13° NNW 22:37:59 10° NNE visible
27 Jul -0.8 21:41:22 10° WNW 21:43:42 18° NNW 21:46:02 10° NNE visible
28 Jul -1.5 20:48:16 10° W 20:51:06 27° NNW 20:53:57 10° NNE visible
29 Jul -0.6 21:34:22 10° NW 21:35:40 12° NNW 21:37:00 10° N visible
